Wetbulb
48.43 44.47 42.17 46.07 47.64 51.03 53.07 54.72 55.97 57.26 60.00 60.21 58.50 57.81 59.29 60.30 61.44 62.12 62.36 62.47 63.55 63.99 65.50 67.43 68.28 69.65 69.61 69.87 69.01 68.52 69.15 68.24 69.59 67.53 67.62 67.84 68.99 70.46 70.33 71.17 71.26 68.71 66.55 68.15
44.26 41.98 48.13 50.08 52.07 51.55 53.50 54.82 53.90 56.72 59.47 59.05 58.25 57.48 58.80 60.10 60.34 62.69 62.73 61.90 62.99 63.51 64.46 66.28 67.39 68.21 69.05 68.91 69.13 69.77 69.57 68.36 69.49 70.09 69.28 69.81 70.56 71.81 70.14 71.35 71.83 69.68 68.23 68.66
41.54 45.64 50.89 49.39 49.96 48.66 54.72 53.74 54.59 54.36 58.09 58.70 57.96 55.50 56.48 60.74 63.61 63.93 63.43 63.89 63.50 64.12 63.96 64.99 66.67 67.93 68.91 68.52 69.25 69.83 69.44 69.96 70.44 70.42 70.51 70.53 70.70 69.62 68.90 69.76 69.97 70.87 72.30 72.62
42.97 48.38 47.95 46.76 47.60 51.65 50.02 58.26 57.82 55.43 53.05 48.75 55.32 46.82 55.06 57.85 58.52 62.27 62.41 61.57 62.32 64.66 65.47 65.26 66.65 67.34 68.52 69.08 70.28 69.69 70.18 70.37 70.23 70.92 69.46 68.22 67.44 65.98 67.03 68.24 70.42 70.32 71.77 69.83
42.64 45.21 45.54 45.79 47.49 55.66 54.80 59.28 56.44 55.45 49.15 49.54 50.76 47.49 50.03 57.02 55.98 58.16 61.76 61.60 62.16 64.04 65.52 65.30 66.00 67.47 68.31 70.42 70.23 70.08 69.87 69.64 69.98 70.61 70.45 67.64 67.55 67.70 69.65 69.58 70.52 69.83 71.19 71.91
45.08 48.31 47.74 48.25 49.81 58.08 59.86 56.27 55.70 52.79 49.92 44.48 49.36 49.24 48.58 52.51 55.53 57.90 61.47 62.22 62.40 63.65 65.12 66.24 67.66 68.40 68.52 69.87 70.27 69.86 69.68 69.35 70.30 70.88 70.77 69.97 68.65 69.16 69.09 68.52 69.48 69.16 69.39 70.78
43.89 44.95 46.56 51.16 53.03 56.41 56.68 50.78 43.55 39.66 40.46 41.77 51.10 49.33 51.34 56.76 59.63 59.94 60.49 62.38 62.63 64.09 64.42 66.08 66.75 66.69 67.61 68.92 70.40 70.32 69.77 69.48 70.46 70.79 70.44 70.36 69.72 69.36 68.62 68.52 69.10 68.65 68.61 69.07
37.91 37.98 46.74 51.78 49.81 50.21 51.47 49.33 41.48 36.31 37.30 41.56 50.87 48.48 53.51 59.23 61.62 62.59 62.70 63.25 62.08 63.20 64.19 65.31 66.72 67.12 67.69 69.01 70.37 70.99 69.53 69.57 70.35 71.56 70.04 70.91 70.83 70.28 69.70 69.61 69.68 69.33 69.57 69.65
40.88 41.37 50.07 52.12 51.53 50.38 47.88 44.32 50.58 44.19 42.19 40.84 47.25 53.58 58.48 59.97 60.42 60.83 60.74 62.17 60.55 62.36 62.87 64.98 66.42 66.96 68.53 68.05 70.33 71.16 69.93 69.95 70.15 71.26 71.05 70.84 71.29 71.33 70.94 71.34 71.70 70.22 71.40 72.62
45.30 40.50 46.06 49.92 50.68 49.21 47.89 48.83 40.18 38.52 35.02 34.60 45.23 49.73 50.33 55.85 56.53 60.53 60.12 60.21 61.11 61.87 62.99 63.89 65.67 66.44 68.05 68.48 70.66 71.74 70.72 70.48 70.63 70.89 71.74 71.92 71.92 71.75 71.46 71.34 71.36 71.00 71.49 72.49
45.40 41.91 44.18 46.41 43.85 43.80 43.94 41.06 39.82 39.51 38.77 37.40 39.89 45.47 57.00 55.42 56.63 56.84 56.72 58.72 61.38 62.88 62.89 63.73 65.25 66.77 66.67 67.55 69.15 71.83 70.86 70.70 70.63 71.41 71.28 71.42 71.73 72.36 72.02 71.90 71.86 72.13 71.85 70.52
46.09 40.20 39.33 41.90 50.37 48.42 44.61 41.42 39.25 36.78 36.49 37.27 39.77 44.73 56.45 57.17 57.87 59.68 59.76 60.58 61.10 63.49 63.02 64.78 65.25 66.44 66.15 67.30 68.45 68.82 69.16 71.16 70.49 72.15 71.60 71.12 71.16 72.14 71.66 71.80 71.91 72.37 71.38 71.11
47.24 42.24 38.42 40.79 45.05 48.79 46.65 46.90 41.70 39.10 36.02 35.59 36.45 44.51 56.19 56.84 57.36 58.61 58.63 60.38 61.60 65.23 64.23 64.02 65.81 65.72 65.52 67.03 67.70 67.85 68.19 67.77 68.01 67.25 69.58 71.52 71.35 71.37 71.50 71.94 71.68 72.15 72.32 71.99
52.65 43.43 39.46 36.47 40.89 44.58 44.50 47.34 46.34 40.22 36.11 37.53 44.45 48.23 52.64 56.14 56.49 57.89 59.12 61.15 63.87 63.08 63.66 65.11 64.89 64.69 64.47 65.00 65.51 66.07 66.50 67.41 67.51 66.78 66.61 69.33 71.16 71.40 71.93 71.96 72.21 72.26 72.43 72.11
45.01 41.70 42.10 44.14 48.78 48.20 46.74 47.26 47.86 43.72 44.44 40.14 47.59 49.60 52.30 53.44 55.68 57.48 59.80 61.86 63.98 62.87 62.91 64.81 64.82 64.49 64.26 64.43 65.47 65.36 66.74 67.05 67.36 66.29 66.37 67.25 70.37 70.28 71.78 71.60 72.11 72.20 71.96 71.51
44.70 39.20 40.48 41.28 47.01 46.84 47.89 49.71 51.06 50.56 52.88 51.51 50.87 49.55 55.04 54.96 55.39 55.93 56.58 57.98 61.68 63.28 65.53 66.29 66.78 65.50 65.17 65.09 64.82 65.60 66.80 66.80 68.01 66.24 65.91 67.05 68.04 69.52 70.22 71.26 71.58 71.30 71.33 71.12
44.15 40.53 38.34 36.12 42.74 43.27 42.37 46.88 50.29 53.28 55.80 52.06 48.23 49.33 52.11 51.62 53.19 54.34 57.23 60.85 61.42 62.70 63.49 63.78 66.47 65.76 65.64 65.75 65.38 64.23 66.23 67.65 67.61 66.26 67.29 67.11 67.56 67.51 67.15 69.07 70.63 70.79 70.93 70.88
41.69 39.31 38.35 36.13 39.82 36.27 44.99 51.61 53.13 51.93 55.77 56.89 56.31 56.25 57.35 57.42 59.39 60.13 61.33 60.84 60.90 61.08 60.97 61.33 64.35 65.60 66.81 67.06 66.70 65.78 65.73 65.23 65.29 64.91 64.82 65.41 65.41 65.16 65.86 66.81 67.56 68.08 68.98 69.03
43.96 39.76 37.00 35.78 34.07 40.81 47.21 50.18 49.15 49.72 50.14 56.62 55.32 57.00 58.67 59.35 58.34 58.82 59.39 59.16 59.30 59.36 59.69 59.73 61.26 63.15 65.21 65.03 64.45 63.69 63.01 63.17 62.75 62.77 63.40 63.78 64.01 63.72 63.92 64.66 66.11 67.97 67.15 65.34
44.15 42.00 39.47 36.00 33.08 32.28 43.33 50.85 51.49 52.70 44.62 53.90 55.80 55.05 55.14 54.30 48.07 53.91 57.64 57.12 56.62 56.94 57.22 57.28 58.06 59.23 60.77 63.10 63.19 61.82 61.28 61.29 60.74 60.35 60.52 61.60 62.22 62.16 62.67 64.10 63.33 63.53 62.51 61.26
38.29 38.10 36.77 36.33 35.28 41.91 49.36 52.08 51.66 40.91 43.65 53.76 54.70 53.38 52.40 49.50 52.27 57.02 55.48 54.47 55.62 56.22 56.00 56.54 56.06 55.44 56.98 60.75 60.49 59.55 60.14 58.78 59.22 58.92 58.31 58.93 59.99 60.58 62.85 63.83 62.08 60.39 59.47 58.46
36.89 35.05 34.42 35.90 34.07 35.15 51.41 51.55 45.90 47.73 50.09 55.81 56.31 57.59 57.12 57.34 57.29 56.04 53.75 53.75 53.71 54.48 55.03 55.72 54.92 54.91 55.98 57.26 57.43 56.06 56.20 57.50 57.45 56.38 56.22 56.44 57.32 59.95 62.23 62.92 61.54 59.63 58.36 57.60
36.96 38.98 36.95 38.53 39.54 46.70 49.91 49.40 51.08 50.43 49.54 50.30 56.68 58.83 58.35 56.74 54.73 53.44 52.10 52.55 51.32 53.36 53.57 54.00 53.54 53.73 55.12 56.10 56.54 55.10 55.46 56.78 56.66 55.02 55.16 54.12 51.24 52.48 52.86 54.15 55.22 59.93 60.51 58.53
42.70 44.50 40.58 41.10 44.57 47.36 49.64 51.02 50.69 51.49 51.62 52.78 59.68 59.00 58.12 55.60 54.98 52.90 52.19 51.44 49.68 49.86 49.77 50.32 50.70 50.18 50.58 53.01 54.53 55.34 56.18 56.60 56.51 55.66 53.60 50.17 48.86 48.21 48.43 48.41 47.88 49.98 52.66 58.56
43.44 43.78 40.38 42.10 44.34 46.84 49.15 50.47 51.65 52.35 54.73 59.05 59.49 58.87 56.93 55.53 53.71 52.51 50.92 50.66 50.07 49.67 49.38 49.29 49.54 49.25 49.60 50.96 52.79 54.60 54.99 55.65 54.06 54.08 53.11 51.36 47.86 45.24 43.02 42.46 42.40 44.56 43.40 47.21
43.52 42.24 39.30 38.80 45.86 45.04 45.95 49.90 52.42 51.62 53.85 54.32 57.76 56.35 56.54 55.52 53.49 51.98 50.91 50.56 49.83 49.22 48.87 48.38 47.84 48.06 48.53 49.84 50.18 51.42 54.56 54.87 54.38 53.66 52.99 51.69 49.61 46.53 44.96 40.88 41.57 43.85 42.83 41.96
MSLP
1008.94 1009.48 1009.48 1009.40 1009.77 1010.39 1011.08 1011.40 1011.98 1013.49 1013.46 1013.28 1013.04 1013.10 1012.83 1012.82 1012.65 1012.75 1012.95 1013.28 1013.34 1013.64 1014.09 1014.75 1015.50 1016.31 1016.69 1017.12 1017.56 1017.87 1018.37 1018.68 1018.74 1018.91 1019.21 1019.42 1019.73 1019.88 1020.11 1020.01 1019.89 1020.02 1020.32 1020.03
1009.49 1009.39 1008.77 1008.99 1009.65 1010.28 1010.52 1011.11 1012.84 1014.11 1014.00 1013.86 1013.75 1013.72 1013.25 1013.00 1012.96 1013.13 1013.10 1013.30 1013.80 1014.13 1014.62 1014.94 1015.51 1016.05 1016.56 1016.89 1017.45 1018.04 1018.18 1018.65 1018.69 1018.99 1019.34 1019.34 1019.43 1019.76 1019.86 1019.78 1019.90 1020.02 1020.26 1020.21
1009.28 1008.25 1008.16 1008.72 1009.19 1009.56 1010.17 1010.79 1011.87 1012.84 1013.53 1014.58 1014.35 1014.32 1013.84 1013.25 1013.09 1013.02 1013.55 1013.64 1013.80 1013.92 1014.41 1015.15 1015.46 1015.87 1016.42 1016.81 1017.25 1018.02 1018.18 1018.62 1018.90 1019.10 1019.47 1019.52 1019.66 1020.05 1020.44 1020.26 1020.05 1019.99 1020.26 1020.20
1008.76 1007.61 1007.74 1007.75 1008.14 1008.36 1009.31 1010.18 1010.99 1012.27 1013.70 1014.78 1014.71 1015.04 1014.32 1013.75 1013.50 1013.68 1013.98 1014.01 1014.13 1014.24 1014.54 1014.91 1015.52 1015.90 1016.31 1016.66 1016.99 1017.67 1018.17 1018.49 1018.82 1019.02 1019.62 1019.65 1020.06 1020.54 1020.52 1020.25 1020.08 1019.98 1020.05 1019.96
1007.73 1007.04 1006.86 1006.77 1006.64 1007.11 1009.02 1009.38 1011.44 1012.55 1013.97 1014.77 1015.19 1014.90 1013.89 1014.12 1013.32 1012.83 1013.36 1013.72 1014.19 1014.39 1014.49 1014.83 1015.50 1015.95 1016.23 1016.65 1017.03 1017.68 1018.04 1018.35 1018.69 1018.95 1019.30 1019.73 1020.14 1020.33 1020.26 1020.32 1020.27 1020.23 1020.13 1019.93
1007.20 1006.46 1006.05 1005.63 1005.42 1006.52 1008.69 1010.00 1012.22 1013.25 1014.24 1014.93 1014.61 1014.16 1013.42 1012.59 1010.64 1012.33 1012.71 1013.22 1013.77 1014.26 1014.78 1014.94 1015.26 1015.86 1016.24 1016.75 1017.24 1017.65 1018.22 1018.38 1018.41 1018.76 1019.05 1019.53 1019.90 1020.06 1020.24 1020.46 1020.43 1020.30 1020.38 1020.24
1006.69 1005.80 1005.10 1004.92 1005.74 1006.75 1008.19 1010.05 1012.61 1013.76 1014.39 1014.15 1014.00 1013.74 1011.88 1011.31 1010.89 1011.74 1012.00 1012.86 1013.39 1013.68 1014.43 1014.60 1015.13 1015.81 1016.12 1016.44 1017.06 1017.48 1017.89 1018.44 1018.41 1018.78 1019.00 1019.22 1019.52 1019.85 1020.04 1020.17 1020.18 1020.32 1020.31 1020.23
1007.41 1006.03 1004.78 1004.16 1004.75 1006.71 1007.93 1010.00 1011.04 1012.50 1013.56 1013.66 1014.26 1012.81 1011.10 1010.53 1008.63 1010.02 1010.82 1011.90 1012.97 1013.73 1013.87 1014.17 1014.71 1015.30 1015.78 1016.24 1016.70 1017.32 1017.71 1018.30 1018.55 1018.55 1018.88 1019.06 1019.27 1019.53 1019.74 1020.04 1020.03 1020.00 1019.90 1019.85
1007.10 1006.10 1004.93 1004.37 1004.22 1005.08 1006.81 1008.55 1008.54 1010.86 1011.87 1012.58 1012.30 1012.15 1011.09 1010.59 1009.92 1010.01 1010.59 1011.21 1012.25 1012.93 1013.53 1014.01 1013.98 1014.44 1015.40 1015.94 1016.24 1016.76 1017.31 1017.85 1018.36 1018.59 1018.59 1018.81 1018.91 1019.28 1019.61 1019.60 1019.92 1019.92 1019.73 1019.54
1007.05 1006.68 1005.63 1004.91 1004.59 1005.06 1005.64 1007.13 1008.73 1010.39 1011.58 1012.06 1011.48 1011.36 1011.56 1010.69 1009.96 1009.58 1009.99 1010.33 1011.07 1011.79 1012.71 1013.22 1013.68 1014.34 1014.80 1015.37 1015.73 1016.42 1016.88 1017.40 1017.79 1018.25 1018.41 1018.49 1018.67 1018.86 1019.09 1019.40 1019.45 1019.55 1019.55 1019.36
1006.31 1007.32 1006.97 1006.01 1005.62 1005.90 1006.51 1007.44 1008.70 1010.07 1010.62 1011.06 1011.29 1010.75 1010.15 1010.03 1009.86 1010.09 1010.49 1011.15 1010.61 1010.47 1011.10 1012.22 1013.06 1013.66 1014.36 1015.11 1015.58 1016.13 1016.69 1017.32 1017.75 1017.98 1018.27 1018.45 1018.53 1018.63 1018.72 1018.95 1019.27 1019.25 1019.35 1019.34
1007.24 1008.07 1008.36 1007.63 1006.71 1005.95 1006.70 1008.11 1008.82 1010.36 1010.71 1010.98 1010.91 1010.92 1010.42 1010.15 1010.50 1011.36 1011.60 1010.95 1011.50 1011.32 1010.66 1011.42 1012.24 1013.46 1014.34 1015.11 1015.88 1015.87 1016.40 1017.18 1017.57 1017.71 1017.97 1018.36 1018.43 1018.58 1018.62 1018.58 1018.67 1018.99 1019.26 1019.13
1007.50 1008.59 1009.17 1008.51 1007.96 1007.27 1008.11 1008.68 1009.05 1009.50 1010.24 1010.67 1011.45 1011.41 1011.17 1010.75 1010.95 1011.01 1011.23 1011.41 1011.52 1011.46 1011.42 1011.67 1012.45 1013.37 1014.09 1014.92 1015.50 1015.86 1016.20 1016.61 1017.08 1017.42 1017.86 1018.18 1018.38 1018.60 1018.70 1018.53 1018.47 1018.61 1018.96 1019.15
1007.63 1009.31 1010.23 1010.08 1009.94 1009.67 1009.34 1009.09 1009.04 1009.86 1010.68 1011.15 1011.45 1011.89 1012.05 1012.00 1011.82 1011.58 1011.41 1011.60 1011.18 1011.20 1011.39 1011.89 1012.64 1013.29 1013.96 1014.54 1015.17 1015.51 1015.78 1016.31 1016.94 1017.20 1017.59 1017.97 1017.98 1018.10 1018.28 1018.26 1018.36 1018.47 1018.63 1018.92
1008.94 1010.07 1010.46 1010.24 1009.93 1009.91 1009.43 1009.59 1009.38 1009.91 1009.83 1010.68 1011.88 1012.50 1013.15 1012.94 1012.86 1012.80 1012.46 1011.54 1011.11 1011.10 1011.14 1011.96 1012.77 1013.92 1014.30 1014.72 1015.13 1015.28 1016.07 1016.35 1016.74 1017.18 1017.32 1017.72 1017.74 1017.89 1017.83 1017.83 1017.99 1018.18 1018.49 1018.72
1010.02 1010.96 1011.09 1011.03 1010.57 1010.16 1010.38 1009.86 1009.73 1010.43 1010.75 1011.47 1012.37 1013.22 1013.20 1013.79 1013.60 1013.34 1012.76 1012.82 1012.90 1012.91 1012.43 1011.88 1013.31 1013.86 1014.37 1014.60 1014.80 1015.59 1015.98 1016.32 1016.72 1016.82 1017.12 1017.54 1017.82 1018.15 1017.75 1017.63 1017.77 1018.02 1018.19 1018.54
1010.84 1011.69 1012.33 1012.34 1011.34 1010.51 1011.07 1011.98 1011.29 1011.57 1011.78 1012.53 1013.51 1014.11 1014.21 1014.53 1014.78 1014.30 1013.97 1014.33 1014.23 1014.04 1013.54 1013.45 1014.34 1014.57 1014.97 1015.06 1015.38 1016.10 1016.11 1016.08 1016.42 1017.01 1017.33 1017.71 1017.95 1018.52 1018.33 1018.29 1017.92 1018.01 1018.28 1018.44
1011.24 1012.29 1012.89 1013.41 1012.35 1012.50 1012.94 1011.79 1011.14 1012.30 1013.32 1013.93 1014.39 1014.84 1015.04 1015.28 1015.31 1015.39 1015.23 1015.22 1015.31 1015.13 1015.82 1016.23 1014.72 1015.34 1015.88 1015.95 1016.27 1016.33 1016.78 1017.00 1016.93 1016.94 1017.79 1018.58 1018.83 1018.77 1018.66 1018.58 1018.67 1018.53 1018.51 1018.70
1011.55 1012.71 1014.09 1014.35 1014.25 1013.57 1013.09 1012.53 1012.24 1012.36 1014.13 1014.24 1014.74 1015.32 1015.58 1015.57 1015.64 1016.14 1016.38 1016.71 1016.78 1016.57 1016.32 1016.33 1015.80 1016.29 1014.99 1015.86 1016.87 1017.44 1017.73 1018.14 1018.24 1018.62 1019.35 1019.09 1018.90 1019.08 1019.36 1019.44 1019.20 1018.65 1018.80 1019.20
1012.47 1013.14 1014.06 1015.04 1015.00 1014.52 1013.80 1012.99 1012.71 1012.71 1014.13 1014.75 1014.84 1015.29 1015.43 1015.68 1016.50 1017.09 1017.14 1017.31 1017.62 1017.76 1017.41 1017.35 1017.28 1017.18 1017.05 1017.86 1017.73 1017.83 1018.17 1018.88 1019.26 1019.49 1019.72 1019.60 1019.41 1019.59 1019.66 1019.57 1019.68 1019.62 1019.88 1020.26
1014.13 1015.14 1015.60 1015.83 1015.64 1015.10 1014.34 1013.47 1013.06 1013.97 1015.48 1014.93 1015.33 1015.52 1015.92 1016.28 1016.92 1017.37 1017.92 1018.05 1018.00 1017.98 1018.04 1017.84 1017.38 1017.89 1018.34 1018.47 1018.80 1019.03 1018.82 1018.89 1019.24 1019.56 1019.84 1019.98 1019.95 1019.85 1019.84 1019.82 1020.21 1020.54 1020.84 1021.28
1014.94 1015.77 1016.39 1016.59 1016.52 1016.00 1014.93 1014.36 1014.93 1015.85 1015.53 1014.98 1015.42 1015.75 1016.22 1016.87 1017.47 1018.11 1018.55 1018.90 1019.10 1019.04 1018.67 1018.26 1018.37 1018.08 1018.88 1018.68 1018.73 1019.47 1019.52 1019.86 1020.18 1020.16 1020.36 1020.38 1020.60 1020.44 1020.35 1020.46 1020.88 1021.39 1021.52 1021.91
1015.31 1015.44 1016.00 1016.76 1016.60 1016.08 1015.71 1015.31 1015.56 1015.83 1015.75 1015.65 1015.48 1016.02 1016.27 1017.05 1018.06 1018.68 1019.13 1019.75 1019.80 1019.76 1019.78 1019.95 1019.94 1019.85 1019.79 1019.51 1019.42 1019.45 1019.84 1019.79 1020.33 1020.44 1020.90 1021.43 1021.46 1021.39 1021.37 1021.50 1021.68 1021.69 1021.99 1022.51
1015.11 1015.25 1016.05 1016.58 1016.73 1016.47 1016.28 1015.93 1015.52 1015.17 1015.13 1015.03 1015.30 1015.76 1016.43 1017.22 1018.27 1019.16 1019.71 1020.23 1020.35 1020.21 1020.15 1020.44 1020.49 1020.56 1020.61 1020.34 1020.21 1020.06 1020.49 1020.61 1020.43 1020.56 1021.17 1021.49 1021.59 1021.76 1021.96 1022.19 1022.32 1022.50 1022.65 1023.00
1015.03 1015.23 1016.04 1016.78 1016.69 1016.67 1016.16 1015.71 1014.86 1014.48 1014.69 1014.79 1015.75 1016.12 1016.90 1017.49 1018.52 1019.29 1019.90 1020.36 1020.50 1020.51 1020.67 1020.91 1021.21 1021.27 1021.26 1021.14 1021.03 1020.74 1021.03 1021.27 1021.18 1021.32 1021.77 1021.73 1022.37 1022.38 1022.80 1023.22 1023.36 1023.39 1023.51 1023.58
1014.66 1014.68 1015.63 1015.73 1015.40 1015.59 1015.38 1014.77 1014.70 1014.70 1015.06 1015.52 1015.96 1016.68 1017.19 1017.44 1018.27 1018.95 1019.67 1020.11 1020.43 1020.65 1020.98 1021.46 1021.92 1022.10 1021.98 1021.79 1021.61 1021.40 1021.34 1021.42 1021.81 1022.00 1022.23 1022.40 1022.73 1023.10 1023.17 1023.39 1024.30 1024.13 1023.85 1023.58
Wind_Speed
3 4 5 10 7 3 4 2 8 4 6 6 4 7 6 5 4 3 4 13 18 17 13 15 17 16 14 10 8 8 8 6 4 2 3 3 3 3 2 4 6 6 5 3
4 5 11 6 3 8 10 2 6 5 5 1 4 4 4 4 3 3 4 17 14 8 13 14 14 13 15 14 11 7 8 7 4 3 2 2 2 3 2 2 4 5 5 4
6 12 10 6 8 12 4 7 9 7 9 3 4 3 6 0 3 8 2 0 7 15 18 14 14 13 12 13 12 9 9 7 6 4 3 3 4 4 3 2 1 2 5 6
7 13 12 7 10 7 5 3 11 12 10 3 5 3 2 4 5 6 8 5 6 10 13 9 13 11 12 12 13 12 8 8 6 7 4 5 4 4 3 4 2 1 3 4
10 5 6 8 11 4 6 17 8 10 5 4 3 5 6 8 13 17 14 12 8 6 15 13 8 8 10 10 12 8 8 8 6 6 6 5 4 2 2 2 4 3 3 5
11 7 6 9 9 12 15 18 7 6 3 3 9 3 4 12 29 17 11 14 12 7 7 11 7 8 7 7 9 8 7 7 8 6 5 7 7 5 3 3 3 3 3 3
7 6 4 9 12 14 16 12 1 3 3 2 11 3 6 5 16 17 16 11 14 14 10 12 10 7 7 10 9 9 8 7 8 8 7 7 7 6 6 5 4 4 3 3
3 8 4 2 11 14 12 9 6 6 4 4 4 6 4 7 10 14 14 14 8 11 9 11 11 8 7 9 9 10 8 7 7 8 8 6 6 4 4 5 4 4 3 4
0 5 5 4 4 10 6 7 11 6 2 3 6 1 5 5 8 12 11 15 15 13 10 11 12 11 8 8 11 12 11 8 7 7 6 6 6 6 5 7 5 4 4 5
6 3 2 8 3 3 8 6 3 4 3 4 3 4 6 10 11 14 14 16 13 15 13 10 11 11 11 8 9 11 11 12 10 8 7 7 6 6 6 5 6 6 4 4
5 5 9 2 3 7 3 2 4 4 5 5 4 5 4 13 6 9 2 3 11 19 18 15 13 13 12 9 8 11 10 9 8 7 6 6 6 6 6 5 5 5 4 4
4 6 2 6 9 3 5 3 4 6 7 3 5 5 5 6 7 9 4 4 3 6 15 15 15 12 13 13 10 9 8 9 4 4 6 6 6 5 6 6 7 6 6 5
5 4 4 9 9 10 8 3 1 2 3 3 6 5 6 8 9 7 8 5 4 1 6 10 12 12 13 11 10 10 9 8 8 6 2 5 6 6 7 6 6 6 6 6
3 5 6 6 6 3 4 6 5 3 3 2 2 4 4 5 3 4 5 2 5 8 9 9 8 9 11 10 9 9 8 6 4 5 3 4 7 8 7 7 6 6 6 6
6 4 2 2 2 3 3 7 10 7 5 5 3 5 2 1 2 5 5 6 4 12 15 11 11 7 10 12 8 6 6 6 5 6 3 2 5 6 6 7 7 6 6 5
5 1 2 6 6 6 8 16 19 12 12 12 9 6 2 4 2 2 6 5 8 10 9 11 6 9 10 11 10 4 7 6 4 3 3 1 4 6 6 6 6 6 6 6
4 4 4 3 6 3 10 8 17 13 12 3 4 2 4 4 3 5 6 10 12 11 13 16 7 1 5 7 5 4 4 5 5 5 5 7 7 5 3 3 2 6 6 5
3 3 3 1 6 6 5 5 12 16 9 9 9 4 4 6 7 9 7 14 11 11 10 8 6 10 4 3 6 10 9 9 8 9 7 6 3 5 5 3 5 4 2 3
4 4 4 4 1 1 1 4 3 6 2 3 7 6 7 5 5 8 12 10 11 8 7 8 7 4 13 9 10 10 9 8 10 9 5 2 4 6 5 3 2 2 5 7
8 7 6 2 3 2 1 4 5 4 2 5 5 4 6 1 3 2 3 6 8 8 5 5 7 8 9 4 9 11 10 9 8 7 5 4 5 5 5 5 6 7 8 8
4 4 4 2 2 1 3 8 4 5 6 5 3 4 4 3 2 6 6 6 6 6 6 5 9 9 6 8 10 9 9 9 7 6 5 5 5 5 5 7 7 8 9 9
3 4 1 3 4 1 4 3 7 5 7 5 4 3 9 10 9 7 6 4 4 5 5 7 7 9 7 8 11 10 10 7 6 6 6 6 6 5 5 8 7 7 8 9
3 6 5 5 6 3 4 5 5 4 3 2 5 6 11 10 6 5 5 4 3 4 5 5 5 6 5 6 7 11 5 7 6 7 7 6 6 7 8 7 5 5 5 5
4 3 4 4 2 1 3 4 6 8 6 3 6 12 11 10 9 7 6 5 4 4 5 4 6 6 6 7 7 7 5 4 6 8 8 6 7 7 7 5 5 5 4 4
6 4 5 1 1 2 5 5 5 3 9 14 7 7 8 10 8 7 6 5 5 5 5 5 5 4 5 4 5 5 5 4 6 6 5 7 4 6 7 7 4 4 3 1
4 7 5 7 9 6 6 7 3 4 5 5 12 8 6 7 8 7 7 6 5 6 5 5 4 4 3 3 3 3 3 4 5 5 4 4 3 3 5 5 4 8 7 9
Wind_Direction
263 93 208 216 211 64 286 11 152 127 359 225 201 184 214 162 128 98 94 173 166 169 155 153 152 164 158 158 147 151 144 168 149 122 98 95 157 161 150 176 176 178 185 170
17 214 233 222 240 245 272 151 71 91 235 212 8 294 290 172 182 107 127 155 169 123 149 150 154 151 160 159 158 154 155 160 136 107 131 156 151 107 142 169 184 172 167 174
178 235 236 219 247 257 158 150 177 178 117 50 184 132 296 39 115 74 25 5 136 148 156 161 159 158 154 159 160 162 161 165 148 128 98 67 62 51 36 338 223 170 168 171
228 257 235 230 231 222 99 287 153 132 139 161 347 143 315 295 258 170 190 224 169 138 151 151 167 159 163 169 164 166 164 156 170 147 132 146 144 150 198 188 224 178 203 198
245 246 202 233 225 136 149 146 143 139 77 101 329 89 238 289 251 220 186 199 199 173 161 160 163 178 167 162 168 171 159 156 164 160 157 163 149 189 184 188 180 192 211 236
248 268 174 218 208 123 129 95 90 76 107 105 219 228 218 217 226 220 219 181 191 178 154 139 132 145 156 155 162 160 165 181 161 167 181 184 177 180 156 197 187 206 193 198
320 278 264 216 87 104 109 94 5 5 6 227 192 260 247 260 226 216 218 211 188 182 163 151 156 162 165 167 175 171 164 195 175 178 187 185 186 192 206 194 191 205 195 213
270 330 162 219 146 154 143 154 172 174 176 163 188 243 243 289 207 169 191 182 185 181 178 171 170 155 167 183 164 177 169 196 198 175 192 193 188 185 190 208 206 212 215 224
5 274 326 314 164 132 124 180 182 118 336 79 176 50 320 282 113 136 162 162 177 189 178 181 175 173 156 163 175 181 177 183 190 200 181 193 194 188 198 193 193 206 228 228
247 350 303 293 103 76 138 178 69 2 153 218 183 157 187 231 191 165 165 174 181 182 178 183 179 178 168 178 176 181 177 188 197 192 189 186 193 199 196 204 190 207 235 226
121 97 297 22 149 181 40 32 72 126 143 169 169 237 52 228 190 160 208 282 187 179 183 182 190 184 165 184 162 179 174 179 190 190 190 189 197 203 203 194 183 198 204 178
320 129 267 246 313 236 111 30 99 123 268 184 144 256 1 62 64 80 61 101 314 314 185 179 180 165 159 171 170 152 153 161 153 192 178 209 207 199 206 213 198 190 186 201
304 49 16 347 355 5 40 7 85 209 78 219 124 250 33 51 45 11 49 10 151 114 180 164 183 168 162 161 161 160 161 158 149 112 79 226 209 202 214 215 219 199 178 183
85 73 141 170 202 179 332 338 41 105 78 202 191 135 40 33 51 7 7 311 230 160 151 172 191 163 164 166 171 173 177 177 129 126 124 273 222 203 210 209 210 209 200 189
82 81 331 274 252 206 241 28 23 21 280 145 110 104 143 296 209 328 333 357 153 160 156 173 176 161 165 174 183 202 99 112 163 161 157 296 287 233 221 198 201 211 202 209
4 351 87 1 359 321 70 47 49 48 58 71 79 62 213 64 4 339 1 12 28 50 38 129 126 164 173 189 198 189 129 138 155 176 200 187 332 304 226 216 197 196 194 210
72 97 53 303 318 345 41 359 58 53 29 68 41 58 48 59 26 348 30 45 52 54 58 29 327 149 224 186 137 104 82 51 124 73 37 25 36 351 13 311 211 185 201 168
109 93 89 277 4 57 219 312 92 72 61 82 79 70 108 105 67 38 55 105 91 81 88 91 30 54 43 86 95 89 80 70 79 85 48 39 47 30 11 43 9 322 251 146
49 104 59 105 92 304 62 339 25 123 346 91 125 128 141 147 86 40 25 47 89 96 108 110 108 84 83 87 100 94 87 91 91 98 116 84 82 57 38 53 299 41 95 100
49 68 106 74 107 140 271 307 341 96 40 191 151 168 188 108 63 246 58 66 73 74 57 67 80 74 75 79 111 114 118 117 108 103 102 92 90 101 78 62 62 66 83 90
17 12 94 76 112 260 320 303 326 93 221 170 198 186 192 125 232 108 93 56 54 68 70 57 78 73 67 89 105 95 91 78 72 75 78 61 57 73 69 84 77 81 83 85
136 118 163 80 97 229 338 354 105 227 307 187 177 132 104 114 98 91 81 68 71 90 66 67 63 75 61 79 96 90 83 87 95 87 69 68 47 30 57 85 89 83 104 104
35 166 176 154 208 214 302 136 201 192 219 306 167 138 134 128 120 121 113 103 78 72 61 34 52 77 67 72 95 103 109 110 112 98 93 68 66 61 46 63 61 93 103 110
326 131 115 80 142 175 235 252 204 191 163 207 160 147 146 136 136 124 117 135 128 103 89 70 75 69 47 34 47 76 78 84 97 101 95 80 80 71 59 58 55 66 56 101
199 112 137 26 319 223 259 256 265 192 77 104 124 140 137 130 138 144 141 139 137 120 101 91 84 88 97 86 80 77 73 68 82 82 85 91 75 79 82 56 35 91 81 30
185 181 151 213 207 167 221 216 236 321 83 120 134 133 154 151 151 137 142 150 139 121 101 96 102 112 111 94 86 71 73 108 114 111 104 106 110 112 119 107 79 49 59 66